Other Public Products
Issued by NWS Grand Forks, ND

Home | Current Version | Previous Version | Graphics & Text | Print | Product List | Glossary On
Versions: 1 2 3 4 5 6 7 8 9 10 11 12 13 14 15 16 17 18 19 20 21 22 23 24 25 26 27 28 29 30 31 32 33 34 35 36 37 38 39 40 41 42 43 44 45 46 47 48 49 50
804
FPUS83 KFGF 210510
OPUFGF
PRAIRIE TO PINES WEATHER ROUNDUP
NATIONAL WEATHER SERVICE EASTERN NORTH DAKOTA/GRAND FORKS ND
1200 AM CDT MON MAY 21 2018

 **SATELLITE DATA USED TO AUGMENT SKY COVER AT AUTOMATED STATIONS**
 *****  WEATHER ACROSS EASTERN NORTH DAKOTA  *****

CITY           SKY/WX    TMP DP  RH WIND       PRES   REMARKS
GRAND FORKS    FAIR      49  39  68 S6        30.11S
GRND FORKS AFB FAIR      50  37  61 S5        30.11S
GRND FORKS NWS   N/A     58  36  44 S3        30.09S
BUXTON           N/A     59  34  39 S2          N/A
DEVILS LAKE    FAIR      51  43  74 S5        30.12S
FARGO          FAIR      52  42  69 E3        30.12S
WAHPETON ARPT  FAIR      54  30  40 E3        30.13S
$$

 *****  WEATHER ACROSS CENTRAL AND WESTERN NORTH DAKOTA  *****

CITY           SKY/WX    TMP DP  RH WIND       PRES   REMARKS
JAMESTOWN      FAIR      51  42  71 E7        30.10F
BISMARCK       FAIR      51  41  68 CALM      30.10S
MINOT          FAIR      52  34  50 SE7       30.07R
MINOT AFB      FAIR      47  33  59 S6        30.05S
GARRISON         N/A     47  35  63 SE7       30.08S
WILLISTON      FAIR      59  36  42 S12       30.02S
DICKINSON      FAIR      43  35  73 S9        30.06S
HETTINGER      FAIR      47  35  63 SE9       30.10S
$$

 *****  OTHER OBSERVATIONS NORTHEAST NORTH DAKOTA  *****

CITY           SKY/WX    TMP DP  RH WIND       PRES   REMARKS
WALHALLA       FAIR      59  34  38 SW3       30.09S
LANGDON        FAIR      48  39  71 S9        30.11S
CAVALIER         N/A     55  37  50 S3        30.09S
GRAFTON        FAIR      50  41  71 S7        30.12S
CANDO          FAIR      54  41  62 S9        30.12S
FORT TOTTEN      N/A     55  33  44 SE3       29.95S
ROLLA          FAIR      48  36  61 SW6       30.10S
RUGBY          NOT AVBL
 ***** THE ABOVE OBSERVATIONS ARE NON NWS ARE NOT QUALITY
        CONTROLLED AND MAY MIS-REPORT RAIN FOR SNOW...
$$

 *****  OTHER OBSERVATIONS SOUTHEAST NORTH DAKOTA *****

CITY           SKY/WX    TMP DP  RH WIND       PRES   REMARKS
COOPERSTOWN    FAIR      50  39  66 SE6       30.13S
VALLEY CITY    FAIR      54  36  50 E6        30.14S
OAKES            N/A     50  37  62 E9        30.11F
GWINNER          N/A     54  34  47 E3        30.11F
SHEYENNE NWR     N/A     50  34  54 E3        29.95S
BUFFALO          N/A     54  31  41 W7          N/A
WYNDMERE       NOT AVBL
 ***** THE ABOVE OBSERVATIONS ARE NON NWS ARE NOT QUALITY
       CONTROLLED AND MAY MIS-REPORT RAIN FOR SNOW...
$$

  *****  WEATHER ACROSS NORTHERN MINNESOTA  *****

CITY           SKY/WX    TMP DP  RH WIND       PRES   REMARKS
FLAG ISLAND    NOT AVBL
WARROAD        NOT AVBL
ROSEAU         NOT AVBL
HALLOCK        NOT AVBL
THF RVR FALLS  FAIR      51  36  56 SE5       30.14F
HALSTAD        NOT AVBL
FOSSTON        NOT AVBL
BAUDETTE       FAIR      51  41  68 S3        30.13F
WASKISH        NOT AVBL
CROOKSTON      NOT AVBL
$$
  *****  WEATHER ACROSS CENTRAL AND WEST MINNESOTA  *****

CITY           SKY/WX    TMP DP  RH WIND       PRES   REMARKS
BEMIDJI        NOT AVBL
PARK RAPIDS    FAIR      49  36  61 CALM      30.15S
WADENA         NOT AVBL
DETROIT LAKES  NOT AVBL
MOORHEAD       NOT AVBL
FERGUS FALLS   NOT AVBL
ELBOW LAKE     NOT AVBL
MORRIS MN      NOT AVBL
STAPLES        NOT AVBL
WHEATON        NOT AVBL
$$
  *****  WEATHER ELSEWHERE ACROSS MINNESOTA  *****

CITY           SKY/WX    TMP DP  RH WIND       PRES   REMARKS
DULUTH         FAIR      45  33  63 CALM      30.18R
INTRNTL FALLS  FAIR      44  41  89 CALM      30.14S
ELY            NOT AVBL
CLOQUET        NOT AVBL
BRAINERD       FAIR      47  37  68 CALM      30.16S
HIBBING        FAIR      37  35  92 NW3       30.17R
ALEXANDRIA     FAIR      56  34  43 CALM      30.15S
SAINT CLOUD    FAIR      48  35  60 CALM      30.14S
MINNEAPOLIS    MOCLDY    62  42  47 S8        30.15R
$$

  *****  WEATHER ACROSS SOUTH DAKOTA  *****

CITY           SKY/WX    TMP DP  RH WIND       PRES   REMARKS
SIOUX FALLS    CLOUDY    56  53  90 CALM      30.10F
BROOKINGS      CLOUDY    56  51  84 W3        30.12S
WATERTOWN      CLOUDY    58  47  66 CALM      30.11S
HURON          LGT RAIN  55  50  83 S9        30.10S
SISSETON         N/A     50  35  56 CALM      30.11R
ABERDEEN       CLOUDY    61  37  41 E6        30.09F
MITCHELL       CLOUDY    57  51  80 E3        30.11S
PIERRE         CLOUDY    54  46  74 CALM      30.08F
MOBRIDGE       FAIR      50  41  71 SE5       30.08S
RAPID CITY     FAIR      42  38  85 CALM      30.09F
$$

  *****  SOME WEATHER IN NEARBY STATES *****

CITY           SKY/WX    TMP DP  RH WIND       PRES   REMARKS
GLASGOW MT     FAIR      58  40  51 SE13      29.92S
GREAT FALLS MT FAIR      55  44  66 W5        29.88S
CHEYENNE WY    FAIR      44  43  96 SW6       30.11F
SCOTTSBLUFF NE FAIR      50  47  89 SE8       30.09F
OMAHA NE       CLOUDY    58  56  93 N7        30.06F
DES MOINES IA  RAIN      59  57  93 E8        30.08S FOG
DAVENPORT IA   FAIR      57  52  83 E13       30.14F
CHICAGO IL     CLOUDY    49  42  77 NE8       30.17F
EAU CLAIRE WI  FAIR      49  39  68 CALM      30.17R
LA CROSSE WI   CLOUDY    57  51  80 SE6       30.16F
$$

  *****  SOME NATIONAL WEATHER *****

CITY           SKY/WX    TMP DP  RH WIND       PRES   REMARKS
LA GUARDIA NY  FAIR      66  53  63 N6        30.07R
RALEIGH NC     CLOUDY    72  71  97 SW8       30.11S
ATLANTA GA     CLOUDY    69  64  84 CALM      30.18F
NEW ORLEANS LA FAIR      79  73  82 SE6       30.03F
OKLAHOMA CITY  FAIR      63  60  90 CALM      30.06R
ALBUQUERQUE NM FAIR      69  44  40 E21       30.04R
SALT LAKE CITY FAIR      61  48  62 S5        29.90F
LOS ANGELES CA CLOUDY    60  54  80 W8        29.89S
BOISE ID       CLOUDY    58  54  86 S3        29.90R
SEATTLE WA     MOCLDY    59  49  69 N8        30.05R
$$

*** WEATHER ACROSS MANITOBA...SASKATCHEWAN AND ONTARIO ***
                ***ONTARIO***

CITY           SKY/WX    TMP DP  RH WIND       PRES   REMARKS
GERALDTON      CLEAR     55  36  47 VRB2      30.07R
THUNDER BAY    CLEAR     45  36  70 NW2       30.14R
SIOUX LOOKOUT  CLEAR     55  32  41 SW6       30.10R
TORONTO        CLEAR     48  34  57 N9        30.18S
BIG TROUT LK   MOCLDY    45  30  57 E3        30.03R
PICKLE LAKE    NOT AVBL
DRYDEN         CLEAR     57  30  35 SW8       30.11S
KENORA         CLEAR     57  32  38 SW8       30.11S
$$
                *** MANITOBA***

CITY           SKY/WX    TMP DP  RH WIND       PRES   REMARKS
BRANDON        CLEAR     54  28  37 SW9       30.05S
DAUPHIN        CLEAR     63  30  29 SW10      29.99S
ISLAND LAKE    PTCLDY    52  41  66 SE8       29.97F
PILOT MOUND      N/A     50  36  57 S10         N/A
THE PAS        CLEAR     54  34  47 SE5       29.90F
THOMPSON       PTCLDY    46  36  66 NE5       29.93S
WINNIPEG       CLEAR     64  34  32 S16       30.06S
LYNN LAKE      CLEAR     46  37  71 E8        29.88S
CHURCHILL      PTCLDY    21  18  86 NE5       30.11F WCI  15
GILLAM         CLOUDY    41  34  75 NE6       30.01S
$$
                ***SASKATCHEWAN***

CITY           SKY/WX    TMP DP  RH WIND       PRES   REMARKS
ESTEVAN        CLEAR     52  30  43 S10       30.02S
KINDERSLEY     CLEAR     59  39  47 SE10      29.77F
LLOYDMINSTER   CLEAR     55  43  62 E3        29.76S
PRINCE ALBERT  CLEAR     61  32  33 S7        29.86F
REGINA         CLEAR     57  28  33 S14       29.96F
YORKTON        PTCLDY    57  32  38 S7        29.98S



USA.gov is the U.S. government's official web portal to all federal, state and local government web resources and services.